Houston, TX

2:36 PM CDT on July 26, 2017 (GMT -0500)
Hobby

Weather History for KHOU - April, 2013

Change the Weather History Date:

Saturday, April 6, 2013

  Actual Average Record
Temperature  
Mean Temperature 61 °F 67 °F  
Max Temperature 75 °F 78 °F 88 °F (1909)
Min Temperature 47 °F 57 °F 37 °F (1970)
Degree Days  
Heating Degree Days 4 2  
Month to date heating degree days 29 12  
Since 1 July heating degree days 1135 1341  
Cooling Degree Days 0 4  
Month to date cooling degree days 7 24  
Year to date cooling degree days 112 133  
Growing Degree Days 12 (Base 50)    
Moisture  
Dew Point 54 °F    
Average Humidity 75    
Maximum Humidity 100    
Minimum Humidity 49    
Precipitation  
Precipitation 0.00 in 0.10 in 1.90 in (1899)
Month to date precipitation 1.65 0.60  
Year to date precipitation 7.07 10.59  
Sea Level Pressure  
Sea Level Pressure 30.05 in    
Wind  
Wind Speed 6 mph (SSE)    
Max Wind Speed 21 mph    
Max Gust Speed 28 mph    
Visibility 10 miles    
Events      
T = Trace of Precipitation, MM = Missing Value Source: NWS Daily Summary

Daily Weather History Graph

Daily Weather History Graph

Search for Another Location

Airport or City:

Trip Planner

Search our weather history database for the weather conditions in past years. The results will help you decide how hot, cold, wet, or windy it might be!

Date:

Astronomy

Apr. 06, 2013 Rise Set
Actual Time 7:04 AM CDT 7:42 PM CDT
Civil Twilight 6:40 AM CDT 8:06 PM CDT
Nautical Twilight 6:12 AM CDT 8:35 PM CDT
Astronomical Twilight 5:43 AM CDT 9:04 PM CDT
Moon 4:32 AM CDT (4/6) 4:26 PM CDT (4/6)
Length of Visible Light 13h 26m
Length of Day
12h 38m
Waning Crescent, 15% of the Moon is Illuminated
Apr 6
Waning Crescent
Apr 10
New
Apr 18
First Quarter
Apr 25
Full
May 2
Last Quarter

Hourly Weather History & Observations

Time (CDT) Temp. Dew Point Humidity Pressure Visibility Wind Dir Wind Speed Gust Speed Precip Events Conditions
12:53 AM 55.0 °F 46.9 °F 74% 30.13 in 10.0 mi Calm Calm - N/A   Mostly Cloudy
1:53 AM 53.1 °F 46.9 °F 80% 30.12 in 10.0 mi SSW 3.5 mph - N/A   Mostly Cloudy
2:53 AM 53.1 °F 48.0 °F 83% 30.08 in 10.0 mi SSE 5.8 mph - N/A   Mostly Cloudy
3:53 AM 53.1 °F 48.9 °F 86% 30.05 in 10.0 mi SE 6.9 mph - N/A   Mostly Cloudy
4:53 AM 53.1 °F 48.9 °F 86% 30.06 in 10.0 mi South 3.5 mph - N/A   Mostly Cloudy
5:53 AM 52.0 °F 48.9 °F 89% 30.06 in 10.0 mi SSE 4.6 mph - N/A   Mostly Cloudy
6:53 AM 53.1 °F 50.0 °F 89% 30.07 in 10.0 mi Calm Calm - N/A   Mostly Cloudy
7:53 AM 55.0 °F 51.1 °F 86% 30.09 in 10.0 mi SE 3.5 mph - N/A   Mostly Cloudy
8:53 AM 61.0 °F 55.0 °F 81% 30.09 in 10.0 mi SSE 8.1 mph - N/A   Mostly Cloudy
9:53 AM 64.9 °F 55.9 °F 73% 30.10 in 10.0 mi South 11.5 mph 20.7 mph N/A   Mostly Cloudy
10:09 AM 64.4 °F 55.4 °F 73% 30.09 in 10.0 mi South 10.4 mph - N/A   Mostly Cloudy
10:53 AM 66.9 °F 55.0 °F 66% 30.12 in 10.0 mi South 12.7 mph 21.9 mph N/A   Mostly Cloudy
11:53 AM 70.0 °F 55.9 °F 61% 30.10 in 10.0 mi SSE 12.7 mph 26.5 mph N/A   Mostly Cloudy
12:00 PM 69.8 °F 55.4 °F 60% 30.08 in 10.0 mi SSE 15.0 mph 19.6 mph N/A   Mostly Cloudy
12:53 PM 71.1 °F 55.9 °F 59% 30.08 in 10.0 mi SSE 13.8 mph - N/A   Mostly Cloudy
1:53 PM 72.0 °F 55.9 °F 57% 30.06 in 10.0 mi SSE 11.5 mph - N/A   Mostly Cloudy
2:53 PM 73.0 °F 55.9 °F 55% 30.03 in 10.0 mi South 11.5 mph 19.6 mph N/A   Mostly Cloudy
3:53 PM 73.0 °F 55.9 °F 55% 30.00 in 10.0 mi South 12.7 mph - N/A   Mostly Cloudy
4:53 PM 73.0 °F 57.0 °F 57% 29.99 in 10.0 mi South 13.8 mph 19.6 mph N/A   Scattered Clouds
5:53 PM 72.0 °F 55.9 °F 57% 29.99 in 10.0 mi SSE 11.5 mph 18.4 mph N/A   Scattered Clouds
6:53 PM 69.1 °F 55.9 °F 63% 29.99 in 10.0 mi SSE 12.7 mph 21.9 mph N/A   Scattered Clouds
7:53 PM 66.9 °F 57.0 °F 70% 29.98 in 10.0 mi SSE 10.4 mph - N/A   Scattered Clouds
8:53 PM 64.9 °F 57.9 °F 78% 29.99 in 10.0 mi SE 5.8 mph - N/A   Scattered Clouds
9:53 PM 64.0 °F 57.9 °F 80% 29.99 in 10.0 mi SE 3.5 mph - N/A   Scattered Clouds
10:53 PM 63.0 °F 59.0 °F 87% 30.00 in 10.0 mi SSE 4.6 mph - N/A   Mostly Cloudy
11:53 PM 63.0 °F 59.0 °F 87% 30.00 in 10.0 mi Calm Calm - N/A   Scattered Clouds